Location: Unspecified
(0.0000°N, 0.0000°E)
Time: 04:32:40
(UTC+00:00)

A-11 Canister half - Pass Details

Date: 17 April 2026
Orbit: 1523 x 1685 km, 47.3° (Epoch: 13 May)

Event Time Altitude Azimuth Distance (km) Brightness Sun altitude
Rises 23:55:09 0° 263° (W) 4,821 - -79.5°
Reaches altitude 10° 00:00:18 10° 285° (WNW) 3,867 - -79.6°
Maximum altitude 00:05:10 15° 315° (NW) 3,532 - -79.5°
Drops below altitude 10° 00:10:07 10° 346° (NNW) 3,913 - -79.3°
Sets 00:15:29 0° 8° (N) 4,916 - -78.9°
